Terminal Aerodrome Forecast
Issued by NWS

Home | Current Version | Previous Version | Text Only | Print | Product List | Glossary On
Versions: 1 2 3 4 5 6 7 8 9 10 11 12 13 14 15 16 17 18 19 20 21 22 23 24 25 26 27 28 29 30 31 32 33 34 35 36 37 38 39 40 41 42 43 44 45 46 47 48 49 50
979
FTUS46 KEKA 262025 AAB
TAFACV
TAF AMD
KACV 262025Z 2620/2718 32006KT P6SM SCT008 OVC020
      TEMPO 2620/2624 5SM BR OVC015
     FM270800 27005KT 3SM BR OVC010
     FM271200 16005KT 5SM BR VCSH SCT010 OVC020=

USA.gov is the U.S. government's official web portal to all federal, state and local government web resources and services.